Main page
METAR-TAF:

METAR-TAF

Airports :

Waskish Municipal Airport

Waskish, Minnesota, United States

latitude: 48-09-15N, longitude: 094-31-01W, elevation: 360 m

Current weather observation

The report was made 20 minutes ago, at 02:55 UTC
Wind 7 kt from the Northeast
Temperature -13°C
Humidity 85%
Pressure 1014 hPa
Visibility: 6.4 km
heavy rain

METAR: KVWU 090255Z AUTO 04007KT 4SM +RA M13/M15 A2994 RMK AO2

Time: 21:15 (03:15 UTC)


TAF: missing

Weather observations and forecasts of more than 4000 airports (METAR and TAF reports).

The available stations are represented by yellow and red dots on the map.

Hover mouse over dot to see the name of the station.

Then click to see weather observations and forecasts.

To change the map : click on the green buttons with a black cross to zoom in, on the green button with a dash to zoom out, or on the green arrows for adjacent maps.


METAR-TAF: